Vertical_Velocity
1 2 3 3 3 3 3 4 4 3 2 1 1 2 2 4 5 6 9 19 21 16 11 14 18 19 18 16 9 4 2 2 2 1 2 2 1 1 1 1 1 0 0 0 0 0 1 1 0 0 0 -0 0 1 1 1 1 0 0 -0 -1 -1 -1 -1 -2 -2 -3 -3 -3
3 5 8 10 9 5 3 4 4 4 3 2 2 3 4 4 3 6 11 22 22 16 11 16 21 21 20 20 13 7 3 1 1 2 2 2 1 1 1 0 -0 -0 -0 -0 -0 0 0 1 1 1 0 0 1 1 0 -0 0 0 -0 -1 -1 -1 -1 -1 -2 -2 -2 -3 -3
8 19 30 34 26 16 9 7 6 6 5 4 3 4 4 5 5 8 13 19 19 14 13 23 30 32 31 30 21 13 7 2 2 2 3 2 1 1 0 -0 -1 -1 -1 -1 -0 0 0 0 0 0 0 0 0 0 -0 -1 -1 -1 -1 -1 -1 -1 -1 -1 -1 -2 -2 -2 -3
15 29 41 44 30 18 10 6 4 2 1 1 1 2 3 4 7 11 15 17 15 13 15 24 26 28 30 32 26 19 12 6 3 2 2 1 1 -0 -1 -1 -1 -1 -1 -1 -0 -0 -0 -0 -0 -0 -0 -0 -0 -0 -1 -1 -1 -1 -1 -1 -1 -1 -1 -1 -1 -2 -2 -2 -2
12 19 26 26 17 10 4 0 -1 -1 -1 -1 1 3 5 6 10 14 16 14 13 16 22 29 25 22 22 24 24 20 14 8 4 2 1 1 0 -0 -1 -1 -1 -2 -1 -1 -1 -1 -1 -1 -1 -1 -0 -0 -0 -1 -1 -1 -1 -2 -2 -2 -1 -1 -0 -0 -1 -2 -2 -2 -2
5 5 7 9 8 5 2 3 9 13 14 13 13 12 12 12 14 15 15 11 11 21 33 40 30 22 17 18 20 20 18 12 6 3 2 1 -0 -1 -1 -2 -2 -1 0 0 -1 -1 -2 -2 -1 -1 -1 -1 -1 -1 -1 -1 -1 -2 -2 -2 -1 -1 -0 0 -1 -2 -2 -2 -2
4 6 9 11 12 10 10 15 29 36 36 33 26 19 14 11 11 10 9 7 9 19 31 38 29 21 16 17 17 18 17 15 10 6 3 1 -1 -2 -2 -2 2 6 8 6 1 -1 -2 -2 -1 -1 -1 -1 -1 -1 -1 -1 -1 -1 -2 -2 -2 -1 -0 0 0 -0 -1 -1 -2
11 17 23 24 22 18 16 18 25 33 37 35 23 13 7 7 9 9 8 6 9 17 27 33 27 22 18 17 16 14 13 13 11 7 4 3 1 0 1 6 8 9 9 6 1 -1 -2 -2 -1 -1 -1 -1 -1 -1 -1 -1 -1 -1 -1 -1 -1 -1 -1 -0 -0 -0 -1 -1 -1
13 20 26 28 22 16 11 9 13 19 22 21 11 3 1 3 9 14 17 16 15 21 30 35 31 26 22 19 16 14 12 11 10 8 6 5 4 3 4 8 8 7 4 2 0 -1 -1 -1 -1 -0 -0 -0 -0 -1 -1 -1 -1 -1 -2 -1 -1 -1 -1 -1 -1 -1 -1 -1 -2
7 11 15 17 12 7 2 1 4 8 10 10 5 1 -1 -1 3 9 16 24 29 36 41 43 36 30 25 22 18 15 13 12 10 7 5 2 2 2 3 5 5 3 1 0 0 0 0 -0 -0 -0 -0 0 -0 -0 -1 -1 -2 -2 -2 -2 -2 -2 -2 -2 -2 -2 -2 -2 -2
1 2 4 6 4 1 -2 -3 -1 2 6 7 4 2 -0 -1 -2 -1 4 12 25 37 45 46 39 34 30 27 22 17 12 7 4 2 1 1 1 2 3 3 3 2 1 1 0 0 0 0 -0 -0 -0 0 -0 -1 -1 -2 -2 -3 -3 -3 -3 -3 -3 -2 -2 -2 -2 -2 -2
-3 -3 -2 -0 -0 -1 -2 -2 -1 2 3 4 4 3 1 -1 -2 -3 -2 -0 7 16 24 26 23 21 18 15 10 5 1 -0 1 2 2 2 3 3 4 4 3 2 1 1 0 0 -0 -0 -0 -0 -0 -0 -1 -1 -1 -2 -2 -2 -2 -3 -3 -3 -3 -3 -2 -2 -2 -2 -2
-4 -4 -4 -3 -2 -2 -2 -2 0 2 3 4 6 4 2 -1 -1 -2 -2 -2 -1 2 4 6 6 6 4 2 -0 -2 -2 0 4 5 4 5 4 4 3 3 3 2 1 1 1 0 -0 -1 -0 -0 -0 -1 -1 -1 -1 -1 -2 -2 -2 -3 -3 -3 -3 -2 -2 -2 -2 -1 -1
-4 -4 -4 -4 -4 -4 -4 -3 -0 1 3 6 8 7 3 -0 -1 -1 -1 -2 -2 -2 -1 -0 1 1 1 0 -0 -1 -0 4 5 4 3 4 4 4 3 3 3 2 2 2 1 0 -0 1 2 1 -1 -1 -2 -2 -2 -2 -2 -2 -2 -2 -2 -2 -2 -2 -1 -1 -1 -1 -1
-4 -4 -3 -3 -4 -5 -5 -3 1 2 3 5 7 6 3 -1 -1 -1 -1 -2 -2 -2 -2 -1 -0 1 1 2 2 3 8 15 13 9 5 4 4 3 3 3 4 4 4 3 2 1 0 2 3 2 -1 -2 -2 -2 -2 -2 -2 -2 -2 -2 -2 -1 -1 -1 -1 -1 -1 -1 -1
-4 -4 -4 -3 -4 -4 -4 -3 4 4 3 2 4 4 2 -1 -0 2 3 0 -2 -2 -2 -2 -1 -1 -0 0 1 8 18 27 22 15 8 5 4 3 3 3 4 4 4 3 1 0 -1 -1 -1 -2 -2 -2 -2 -2 -2 -2 -1 -1 -1 -1 -1 -1 -1 -1 -1 -0 -0 -0 -0
-5 -5 -5 -4 -3 -2 -2 -3 4 6 5 3 5 5 2 -2 -0 3 4 3 1 -0 -1 -2 -2 -3 -3 -1 3 12 22 29 26 19 11 6 4 3 4 6 5 4 2 1 0 -1 -1 -2 -2 -2 -2 -2 -2 -1 -1 -1 -1 -1 -1 -0 -0 -1 -1 -0 -0 -0 -0 0 0
-4 -5 -5 -5 -4 -2 -2 -2 1 3 4 3 4 3 1 -2 -2 -0 1 3 2 2 2 1 -2 -3 -2 -0 6 14 21 26 24 18 11 9 8 8 10 13 7 2 -1 -2 -3 -3 -3 -2 -2 -2 -2 -2 -1 -1 -1 -1 -1 -0 -0 -0 -0 -0 -0 0 0 0 0 0 -0
-3 -3 -4 -5 -4 -4 -3 -3 -1 -0 0 0 0 1 1 -0 -1 -2 -1 2 3 2 2 1 -2 -2 0 5 11 16 20 22 19 14 10 8 8 8 10 12 6 1 -2 -2 -3 -3 -3 -2 -2 -1 -1 -1 -1 -0 -0 -0 -0 -0 -0 -0 -0 -0 0 0 0 0 0 0 -0
-2 -2 -3 -3 -3 -3 -3 -2 -1 -1 -0 -1 1 2 2 1 -1 -2 -3 -1 1 1 -0 -0 -0 2 6 12 15 17 17 17 14 11 7 5 4 3 4 6 3 1 0 1 1 -1 -1 -1 -1 -0 0 0 -0 -0 -0 -0 -0 -0 -0 0 0 0 0 0 0 0 0 0 -0
0 -0 -0 -1 -1 -1 -1 -1 -0 0 -0 -0 1 2 3 1 -2 -3 -4 -3 -2 -1 -0 1 4 7 10 12 13 14 14 12 10 8 6 4 2 1 1 1 1 1 1 1 0 -0 -1 -1 -0 0 0 0 -0 -0 -1 -1 -1 -0 -0 0 0 0 0 0 0 0 0 0 0
3 4 4 2 2 1 1 1 1 1 0 0 1 2 1 -1 -3 -3 -3 -2 -1 1 2 3 4 5 6 8 11 13 14 12 9 6 4 3 1 0 -0 -1 -1 -0 -0 -0 -1 -1 -1 -0 0 0 0 -0 -1 -1 -1 -1 -1 -1 -0 -0 -0 -0 -0 0 0 0 0 0 0
3 6 7 6 5 4 4 3 2 2 2 2 2 1 -1 -2 -3 -2 -1 0 1 2 3 3 3 4 5 7 10 12 13 12 8 5 3 2 1 -0 -1 -2 -2 -2 -2 -2 -1 -1 -0 0 0 -0 -0 -1 -1 -1 -1 -1 -1 -1 -0 -0 -1 -1 -1 -0 0 0 1 0 0
1 4 7 6 6 5 4 4 4 3 4 5 4 2 -1 -2 -1 -0 0 1 1 3 4 6 7 8 9 10 9 8 7 7 5 4 3 2 1 -0 -1 -2 -2 -3 -3 -2 -1 -1 0 0 0 -0 -0 -1 -1 -1 -1 -0 -1 -1 -1 -1 -1 -1 -1 -1 -0 0 1 0 0
1 4 6 6 5 5 6 6 7 7 6 4 3 1 0 0 1 1 1 1 2 4 6 7 8 9 9 9 7 5 4 4 3 3 1 0 -0 -1 -1 -2 -2 -3 -2 -2 -1 -0 1 1 1 -0 -1 -1 -1 -1 -1 -0 -0 -1 -1 -1 -1 -1 -2 -2 -1 -0 0 0 0
0 1 3 6 4 3 4 5 6 6 5 4 3 2 2 3 2 2 1 2 4 6 8 9 9 9 8 7 6 5 4 3 3 2 1 -0 -1 -1 -1 -1 -2 -2 -1 -1 -0 0 1 1 1 0 -0 -1 -1 -1 -1 -1 -0 -0 -1 -1 -1 -1 -2 -2 -2 -1 -0 0 0
1 1 2 3 3 4 4 5 4 4 3 3 3 3 3 3 3 3 3 5 7 9 10 10 10 9 8 6 5 4 3 3 2 1 1 0 -0 -1 -1 -1 -1 -1 -1 -1 -0 0 1 2 1 1 -0 -1 -2 -1 -1 -1 -1 -1 -1 -1 -1 -0 -1 -2 -2 -2 -1 -1 -0
2 3 3 4 3 3 3 3 2 1 1 2 3 3 4 5 5 6 7 9 11 11 10 10 9 8 6 4 3 2 2 1 1 1 1 1 -0 -1 -1 -1 -1 -1 -1 -1 -0 0 1 2 1 1 -0 -1 -1 -1 -1 -1 -1 -1 -1 -1 -1 -0 0 -0 -1 -1 -1 -2 -1
4 4 4 4 3 3 3 4 3 4 7 9 10 10 11 11 10 10 11 11 11 10 9 8 7 5 4 2 1 1 1 -0 -0 0 1 0 -1 -1 -1 -1 -1 -1 -1 -0 0 1 1 1 1 1 0 -0 -1 -1 -1 -1 -1 -1 -1 -1 -0 -0 0 0 1 1 -0 -1 -2
6 7 7 7 8 9 11 12 14 15 17 17 15 14 12 11 10 9 8 8 8 7 7 6 5 3 2 1 1 0 -1 -2 -0 0 -0 -1 -0 -0 0 -0 -1 -0 0 1 0 1 1 1 0 0 0 0 -0 -0 -1 -1 -1 -1 -1 -1 -0 0 1 1 1 1 1 0 -1
3 4 5 6 6 7 8 9 11 11 10 9 7 6 4 3 2 2 2 2 3 4 4 5 3 2 1 1 0 -1 -2 -1 -0 0 -0 -0 0 1 1 0 -0 0 1 1 0 0 1 1 0 0 -0 0 1 0 -0 -1 -1 -1 -1 -0 0 1 1 1 1 1 1 1 -0
2 2 3 3 2 2 1 1 1 0 -0 -1 -2 -3 -3 -3 -3 -3 -2 -1 -1 0 1 2 1 1 1 1 -0 -1 -0 1 1 1 1 1 1 1 1 0 -0 0 0 1 0 0 0 1 0 0 0 1 1 1 0 -0 -1 -0 -0 0 1 1 1 1 1 1 1 1 0
3 3 3 2 1 1 -0 -1 -2 -2 -3 -3 -4 -4 -4 -4 -3 -3 -2 -2 -2 -1 -1 -1 0 0 0 0 0 0 1 1 1 1 1 0 -0 -0 -0 -1 -1 -0 -0 -1 -1 -0 0 0 0 0 1 1 1 0 -0 -1 -1 -0 0 0 1 1 1 0 0 1 1 1 1
2 2 3 2 2 1 1 -0 -1 -1 -1 -1 -2 -2 -2 -2 -2 -2 -2 -1 -1 -1 -1 -1 -0 0 0 1 1 0 0 1 0 -0 -1 -1 -1 -1 -2 -2 -1 -1 -1 -2 -1 -1 -0 0 0 1 1 1 0 -1 -1 -1 -1 -0 -0 -0 -0 0 0 0 0 1 1 1 1
1 1 1 2 2 2 1 0 -0 -0 -0 -1 -1 -1 -1 -1 -1 -1 -1 -0 0 1 1 1 2 1 1 1 0 -0 -1 -1 -2 -2 -3 -3 -3 -3 -3 -2 -2 -2 -2 -2 -2 -1 0 0 0 1 0 0 -1 -1 -1 -1 -1 -1 -0 -1 -1 -0 0 1 1 1 1 1 0
-0 -0 0 0 1 0 -0 -1 -1 -1 -1 -1 -1 -1 -1 -1 -1 -1 -1 0 0 1 2 2 3 2 1 1 1 -0 -1 -2 -3 -4 -4 -3 -3 -3 -3 -2 -2 -2 -2 -1 -1 -0 0 0 0 0 0 -0 -1 -1 -1 -1 -1 -1 -0 -0 -0 -0 0 0 0 0 0 0 0
0 0 0 0 -0 -1 -1 -1 -1 -1 -1 -1 -0 0 -0 -1 -1 -1 -1 0 0 1 1 3 2 1 1 1 0 -0 -1 -2 -2 -2 -2 -2 -2 -2 -1 -1 -1 -0 -0 0 0 0 0 1 1 0 -0 -1 -1 -1 -1 -1 -1 -0 0 0 -0 -0 -0 -0 -1 -1 -1 -0 -0
1 1 0 0 -1 -1 -1 -1 -1 -1 -0 0 1 1 0 -0 -1 -1 -0 1 1 1 1 2 1 0 0 1 0 -1 -1 -0 -0 -1 -1 -1 -0 -0 -0 -0 1 1 1 0 -0 -0 0 0 0 -0 -0 -1 -2 -2 -1 -1 -1 0 1 0 -0 -1 -0 -0 -1 -1 -1 -1 -1
0 0 0 -0 -1 -1 -2 -1 -1 -1 0 1 1 1 0 0 -0 -0 0 1 1 1 1 1 -0 -0 -0 0 -1 -1 -1 -0 0 -0 -0 -0 0 0 0 -0 0 1 1 -1 -2 -2 -1 -1 -1 -1 -1 -1 -2 -2 -1 -1 -1 -0 0 -0 -1 -1 -1 0 -1 -2 -2 -1 -1
-1 -1 -0 -1 -1 -1 -1 -1 -1 -0 0 1 0 -0 0 0 0 0 0 0 0 0 0 0 -1 -1 -1 -1 -2 -2 -2 -1 -1 -1 -1 -1 -0 -0 -1 -1 -1 -0 -0 -2 -3 -3 -2 -1 -1 -1 -1 -1 -2 -2 -1 -1 -1 -1 -0 -0 -1 -1 -1 0 -0 -1 -2 -2 -1
-1 -1 -0 -0 -0 -0 -0 -0 -0 0 0 0 -0 -0 -0 0 -0 -0 -0 -1 -1 -1 -1 -1 -2 -2 -2 -2 -3 -3 -3 -2 -2 -2 -2 -1 -1 -1 -1 -2 -1 -1 -1 -2 -3 -3 -2 -1 -1 -1 -1 -1 -2 -2 -1 -1 -1 -1 -0 0 -0 -1 -1 -0 -0 -1 -2 -2 -2
Height
5752 5754 5756 5758 5759 5758 5758 5759 5760 5760 5762 5763 5764 5765 5767 5768 5769 5770 5771 5772 5774 5773 5772 5773 5776 5777 5776 5773 5771 5770 5770 5771 5772 5773 5773 5774 5774 5775 5776 5777 5777 5778 5779 5779 5780 5780 5780 5781 5781 5781 5782 5782 5782 5782 5783 5783 5783 5783 5783 5783 5783 5782 5782 5782 5782 5782 5781 5781 5781
5752 5754 5756 5758 5757 5756 5755 5757 5758 5759 5760 5761 5763 5764 5764 5765 5766 5767 5769 5773 5773 5771 5771 5773 5775 5775 5773 5770 5769 5768 5768 5769 5769 5770 5771 5771 5772 5773 5774 5774 5775 5775 5776 5777 5777 5777 5778 5778 5779 5779 5779 5779 5779 5780 5780 5780 5780 5780 5780 5780 5780 5780 5780 5779 5779 5779 5779 5778 5778
5754 5757 5758 5758 5755 5753 5753 5754 5756 5757 5758 5759 5761 5762 5763 5764 5764 5766 5768 5770 5769 5768 5769 5772 5774 5775 5773 5769 5767 5766 5766 5766 5767 5768 5768 5769 5770 5770 5771 5772 5772 5773 5773 5774 5774 5775 5775 5775 5776 5776 5776 5776 5777 5777 5777 5777 5777 5778 5778 5778 5778 5778 5777 5777 5777 5776 5776 5775 5775
5753 5755 5754 5753 5751 5750 5751 5752 5754 5755 5756 5758 5759 5759 5761 5762 5763 5765 5767 5767 5767 5767 5769 5772 5772 5772 5771 5769 5767 5765 5764 5763 5764 5765 5766 5767 5767 5768 5769 5769 5770 5770 5771 5771 5772 5772 5772 5773 5773 5773 5773 5774 5774 5774 5774 5774 5774 5775 5775 5775 5775 5775 5775 5774 5774 5774 5773 5773 5772
5749 5749 5749 5748 5748 5749 5750 5751 5753 5753 5754 5755 5756 5757 5758 5760 5762 5764 5765 5765 5765 5767 5769 5770 5769 5768 5768 5768 5767 5764 5762 5761 5762 5763 5764 5764 5765 5765 5766 5767 5767 5768 5768 5769 5769 5769 5769 5770 5770 5770 5770 5771 5771 5771 5771 5772 5772 5772 5772 5772 5772 5772 5772 5771 5771 5770 5770 5769 5769
5744 5745 5746 5747 5748 5748 5750 5753 5754 5752 5751 5752 5753 5754 5756 5758 5760 5762 5763 5763 5764 5766 5768 5768 5767 5766 5765 5765 5766 5764 5762 5759 5759 5760 5761 5762 5763 5763 5764 5764 5765 5766 5766 5766 5766 5767 5767 5767 5767 5767 5768 5768 5768 5768 5769 5769 5769 5769 5769 5769 5769 5769 5769 5768 5768 5767 5767 5766 5766
5742 5743 5744 5745 5746 5747 5750 5754 5753 5752 5751 5751 5751 5753 5754 5756 5758 5759 5760 5761 5763 5765 5766 5765 5764 5763 5763 5763 5764 5763 5761 5758 5758 5758 5759 5759 5760 5761 5762 5764 5764 5764 5764 5764 5764 5764 5764 5764 5764 5764 5765 5765 5765 5765 5766 5766 5766 5766 5766 5766 5766 5765 5765 5765 5764 5764 5764 5763 5763
5740 5742 5742 5742 5742 5744 5746 5748 5748 5748 5749 5750 5750 5750 5752 5754 5755 5757 5759 5760 5761 5762 5762 5761 5760 5759 5759 5760 5761 5759 5757 5756 5756 5756 5757 5758 5759 5759 5760 5761 5761 5761 5761 5761 5760 5760 5760 5761 5761 5761 5762 5762 5762 5763 5763 5763 5763 5763 5763 5763 5762 5762 5762 5761 5761 5760 5760 5759 5759
5737 5738 5738 5739 5739 5740 5741 5743 5743 5744 5745 5746 5747 5748 5749 5751 5754 5755 5757 5757 5757 5758 5758 5757 5757 5757 5757 5758 5757 5755 5754 5754 5754 5755 5756 5756 5757 5757 5758 5758 5758 5757 5757 5757 5757 5757 5757 5758 5758 5758 5759 5759 5759 5759 5759 5760 5760 5760 5759 5759 5759 5759 5758 5758 5758 5757 5756 5756 5755
5731 5732 5733 5734 5736 5738 5739 5739 5740 5741 5743 5744 5744 5745 5747 5748 5749 5750 5752 5753 5754 5755 5756 5755 5755 5755 5756 5755 5754 5753 5752 5752 5752 5752 5753 5753 5753 5754 5754 5754 5754 5753 5753 5753 5753 5754 5754 5754 5755 5755 5756 5756 5756 5756 5756 5757 5757 5756 5756 5756 5756 5755 5755 5754 5754 5754 5753 5753 5752
5728 5729 5730 5731 5733 5734 5736 5738 5739 5739 5741 5742 5742 5743 5744 5745 5746 5746 5747 5748 5749 5752 5754 5754 5754 5753 5753 5752 5751 5751 5750 5750 5750 5749 5749 5749 5749 5749 5749 5749 5749 5749 5749 5749 5750 5750 5751 5752 5752 5753 5753 5753 5753 5753 5753 5753 5753 5753 5753 5753 5753 5752 5752 5751 5751 5751 5750 5749 5749
5726 5727 5728 5729 5730 5732 5734 5735 5736 5737 5738 5739 5740 5740 5741 5742 5743 5744 5744 5745 5745 5746 5746 5747 5748 5748 5748 5748 5748 5748 5748 5747 5747 5747 5746 5745 5745 5745 5745 5745 5745 5745 5746 5746 5747 5748 5748 5749 5749 5750 5750 5750 5750 5750 5750 5750 5750 5750 5750 5749 5749 5749 5749 5749 5748 5748 5747 5747 5746
5724 5725 5727 5728 5729 5730 5731 5732 5734 5735 5736 5737 5738 5739 5739 5739 5740 5741 5742 5743 5743 5743 5743 5743 5743 5743 5744 5744 5745 5745 5745 5744 5744 5743 5742 5741 5741 5741 5742 5742 5742 5742 5743 5743 5744 5744 5745 5746 5746 5747 5747 5747 5747 5747 5748 5747 5747 5747 5747 5747 5747 5746 5746 5746 5745 5745 5744 5744 5744
5722 5724 5725 5726 5727 5728 5729 5730 5731 5733 5734 5735 5735 5736 5736 5737 5738 5739 5739 5740 5740 5741 5741 5741 5741 5741 5741 5742 5742 5742 5742 5742 5740 5739 5738 5738 5738 5739 5739 5739 5739 5739 5740 5740 5741 5742 5743 5743 5743 5744 5744 5744 5744 5744 5744 5744 5744 5744 5744 5744 5744 5744 5743 5743 5742 5742 5742 5741 5741
5720 5721 5723 5724 5725 5726 5728 5728 5730 5731 5731 5732 5732 5733 5734 5734 5735 5736 5737 5737 5738 5738 5739 5739 5739 5739 5739 5740 5740 5741 5742 5740 5737 5735 5734 5735 5735 5736 5736 5737 5737 5737 5737 5738 5739 5739 5740 5740 5740 5741 5741 5741 5742 5742 5742 5741 5741 5741 5741 5741 5741 5740 5740 5740 5739 5739 5739 5739 5738
5718 5719 5721 5722 5723 5724 5725 5726 5728 5729 5729 5729 5729 5730 5731 5731 5733 5734 5734 5735 5735 5735 5736 5736 5736 5737 5738 5738 5739 5739 5739 5738 5735 5732 5731 5732 5733 5734 5734 5734 5734 5735 5735 5736 5736 5737 5737 5738 5738 5738 5739 5739 5739 5739 5739 5739 5738 5738 5738 5738 5738 5737 5737 5737 5736 5736 5736 5736 5735
5716 5718 5719 5720 5721 5722 5723 5724 5725 5726 5726 5727 5727 5727 5727 5728 5730 5731 5731 5731 5732 5733 5733 5733 5734 5734 5735 5736 5736 5736 5736 5735 5732 5730 5729 5730 5731 5732 5732 5733 5733 5733 5733 5733 5734 5734 5734 5735 5735 5735 5735 5735 5736 5735 5735 5735 5735 5735 5735 5734 5734 5734 5734 5734 5734 5733 5733 5733 5733
5714 5715 5716 5718 5719 5719 5720 5721 5722 5722 5723 5723 5724 5724 5724 5725 5726 5727 5728 5729 5729 5730 5730 5731 5731 5732 5732 5733 5733 5734 5733 5732 5729 5728 5728 5729 5729 5730 5731 5731 5731 5730 5730 5730 5731 5731 5732 5732 5732 5733 5732 5732 5732 5732 5732 5732 5732 5732 5731 5731 5731 5731 5731 5730 5730 5730 5730 5730 5730
5711 5713 5714 5715 5716 5717 5718 5718 5719 5719 5719 5720 5720 5721 5721 5722 5722 5723 5724 5726 5726 5727 5728 5728 5729 5729 5729 5730 5731 5730 5729 5728 5726 5724 5724 5726 5727 5727 5728 5728 5727 5727 5728 5728 5729 5729 5729 5729 5729 5729 5729 5729 5729 5729 5729 5729 5729 5728 5728 5728 5728 5728 5728 5727 5727 5727 5727 5727 5726
5709 5710 5711 5712 5713 5714 5715 5715 5716 5716 5716 5717 5717 5718 5718 5719 5719 5720 5721 5722 5723 5724 5724 5725 5726 5727 5727 5727 5727 5726 5725 5723 5722 5721 5721 5721 5722 5723 5723 5724 5724 5724 5724 5725 5726 5726 5725 5725 5725 5725 5725 5725 5725 5725 5725 5725 5725 5725 5725 5725 5724 5724 5724 5724 5724 5724 5724 5723 5723
5706 5707 5707 5708 5709 5710 5711 5712 5712 5713 5713 5714 5714 5714 5715 5715 5716 5717 5717 5718 5719 5720 5721 5722 5724 5724 5723 5723 5722 5722 5721 5720 5718 5717 5718 5718 5719 5719 5719 5720 5720 5720 5721 5721 5722 5722 5722 5722 5722 5722 5722 5722 5722 5722 5722 5722 5722 5722 5722 5721 5721 5721 5721 5721 5721 5720 5720 5720 5719
5704 5704 5705 5705 5705 5706 5707 5707 5708 5709 5709 5710 5710 5711 5712 5712 5713 5713 5713 5714 5715 5716 5717 5719 5719 5719 5718 5718 5719 5719 5718 5717 5715 5715 5715 5715 5716 5716 5716 5716 5717 5717 5717 5717 5718 5718 5718 5718 5718 5718 5718 5719 5719 5719 5719 5719 5719 5719 5719 5718 5718 5718 5718 5718 5717 5717 5717 5716 5716
5701 5702 5703 5702 5702 5702 5702 5703 5704 5705 5705 5706 5707 5707 5708 5708 5709 5709 5710 5710 5711 5712 5713 5714 5714 5714 5715 5715 5715 5715 5714 5713 5712 5712 5712 5712 5712 5713 5713 5713 5713 5713 5713 5714 5714 5714 5714 5714 5714 5715 5715 5715 5715 5715 5715 5715 5715 5715 5715 5715 5714 5714 5714 5714 5714 5714 5713 5713 5712
5698 5699 5699 5700 5700 5699 5699 5699 5700 5701 5702 5703 5703 5703 5704 5704 5705 5705 5706 5708 5708 5709 5710 5710 5711 5712 5712 5711 5711 5710 5709 5709 5709 5709 5709 5709 5709 5709 5709 5709 5709 5710 5710 5710 5710 5711 5711 5711 5711 5711 5712 5712 5712 5712 5712 5712 5712 5712 5712 5711 5711 5711 5711 5710 5710 5710 5709 5709 5708
5696 5696 5696 5697 5697 5697 5697 5697 5698 5699 5699 5699 5699 5699 5700 5700 5702 5703 5704 5705 5705 5706 5706 5707 5707 5706 5706 5706 5706 5706 5706 5706 5706 5706 5706 5706 5706 5706 5706 5706 5706 5706 5707 5707 5707 5707 5708 5708 5708 5708 5708 5708 5709 5709 5709 5709 5709 5709 5708 5708 5708 5707 5707 5707 5706 5706 5706 5705 5704
5693 5693 5693 5694 5694 5694 5694 5694 5695 5695 5695 5695 5696 5696 5697 5698 5699 5700 5701 5702 5703 5703 5703 5703 5702 5702 5702 5702 5702 5703 5703 5703 5703 5703 5703 5703 5703 5703 5703 5703 5703 5703 5704 5704 5704 5704 5704 5704 5704 5704 5705 5705 5705 5705 5705 5705 5705 5705 5704 5704 5704 5704 5703 5703 5702 5702 5702 5701 5701
5689 5689 5689 5689 5690 5690 5691 5691 5691 5692 5692 5693 5694 5694 5695 5696 5697 5698 5699 5699 5699 5699 5699 5699 5699 5699 5699 5699 5699 5699 5699 5699 5699 5699 5699 5699 5699 5699 5699 5700 5700 5700 5700 5700 5701 5701 5701 5701 5701 5701 5701 5701 5701 5701 5702 5701 5701 5701 5701 5700 5700 5700 5699 5699 5699 5698 5698 5697 5697
5685 5686 5686 5687 5687 5688 5688 5689 5689 5690 5690 5691 5692 5693 5693 5694 5695 5696 5696 5696 5696 5696 5696 5695 5695 5695 5695 5695 5696 5696 5696 5696 5696 5696 5696 5696 5696 5696 5696 5697 5697 5697 5697 5697 5698 5698 5698 5698 5698 5698 5698 5698 5698 5698 5698 5698 5697 5697 5697 5697 5696 5696 5695 5695 5695 5694 5694 5693 5693
5683 5684 5684 5685 5686 5686 5686 5687 5688 5688 5689 5689 5690 5690 5691 5691 5692 5692 5692 5692 5692 5692 5692 5692 5692 5692 5692 5692 5692 5692 5692 5693 5693 5693 5693 5693 5693 5693 5693 5693 5694 5694 5694 5694 5694 5694 5694 5694 5694 5694 5694 5694 5694 5694 5694 5694 5693 5693 5693 5693 5692 5692 5692 5691 5691 5690 5690 5689 5689
5681 5682 5683 5683 5684 5685 5685 5686 5687 5687 5687 5687 5687 5688 5688 5688 5689 5689 5689 5689 5689 5689 5688 5688 5688 5688 5689 5689 5689 5689 5689 5689 5689 5689 5689 5689 5690 5690 5690 5690 5690 5690 5690 5691 5691 5691 5691 5691 5691 5690 5690 5690 5690 5690 5689 5689 5689 5689 5689 5689 5689 5688 5688 5688 5687 5687 5686 5686 5685
5678 5679 5679 5680 5681 5682 5682 5683 5684 5684 5684 5684 5684 5685 5685 5685 5686 5686 5686 5686 5685 5685 5684 5684 5684 5685 5685 5685 5685 5685 5686 5686 5686 5686 5686 5686 5686 5687 5687 5687 5687 5687 5687 5687 5687 5687 5687 5687 5687 5687 5686 5686 5686 5686 5686 5686 5685 5685 5685 5685 5685 5684 5684 5684 5684 5683 5683 5682 5682
5674 5675 5676 5676 5677 5678 5679 5680 5680 5681 5682 5682 5682 5683 5683 5683 5683 5683 5683 5683 5683 5682 5682 5681 5681 5681 5681 5681 5682 5682 5682 5683 5683 5683 5683 5683 5683 5683 5683 5684 5684 5683 5683 5684 5684 5683 5683 5683 5683 5683 5683 5683 5682 5682 5682 5682 5682 5682 5682 5681 5681 5681 5681 5680 5680 5679 5679 5679 5678
5672 5673 5673 5674 5674 5675 5676 5676 5677 5678 5678 5679 5679 5680 5680 5680 5680 5680 5680 5680 5680 5680 5679 5679 5679 5679 5679 5679 5679 5679 5679 5679 5679 5679 5680 5680 5680 5680 5680 5680 5680 5680 5680 5680 5680 5680 5680 5679 5679 5679 5679 5679 5679 5679 5678 5678 5678 5678 5678 5678 5678 5677 5677 5677 5676 5676 5675 5675 5674
5669 5669 5670 5670 5671 5671 5672 5672 5673 5673 5674 5674 5675 5675 5676 5676 5677 5677 5677 5677 5677 5677 5677 5676 5676 5676 5676 5676 5676 5676 5676 5676 5676 5676 5676 5676 5677 5677 5677 5677 5677 5677 5677 5677 5677 5676 5676 5676 5676 5676 5675 5675 5675 5675 5675 5675 5674 5674 5674 5674 5674 5674 5674 5673 5673 5672 5672 5671 5670
5666 5666 5667 5667 5667 5668 5668 5669 5669 5670 5670 5671 5671 5672 5672 5673 5673 5673 5673 5674 5674 5674 5674 5674 5674 5674 5673 5673 5673 5673 5673 5673 5673 5673 5673 5673 5673 5674 5674 5673 5673 5673 5673 5673 5673 5673 5673 5673 5672 5672 5672 5672 5671 5671 5671 5671 5671 5671 5671 5671 5670 5670 5670 5669 5669 5669 5668 5668 5667
5663 5664 5664 5664 5664 5665 5665 5666 5666 5667 5668 5668 5668 5669 5669 5669 5669 5669 5669 5670 5670 5671 5671 5670 5670 5670 5670 5670 5669 5669 5669 5669 5669 5669 5669 5669 5670 5670 5670 5670 5669 5669 5670 5670 5669 5669 5669 5669 5669 5669 5668 5668 5668 5668 5668 5668 5668 5668 5667 5667 5667 5666 5666 5666 5665 5665 5664 5664 5663
5660 5660 5660 5661 5661 5662 5663 5663 5664 5664 5665 5665 5665 5665 5665 5666 5666 5666 5666 5667 5667 5667 5667 5667 5667 5667 5666 5666 5666 5666 5666 5666 5666 5666 5666 5666 5666 5666 5666 5666 5666 5666 5666 5666 5666 5665 5665 5665 5665 5665 5664 5664 5664 5664 5664 5664 5664 5664 5664 5663 5663 5663 5662 5662 5662 5661 5661 5660 5660
5656 5657 5657 5658 5658 5659 5659 5660 5661 5662 5662 5662 5662 5662 5662 5662 5662 5662 5663 5663 5664 5663 5663 5663 5663 5663 5663 5663 5663 5663 5662 5662 5662 5662 5662 5662 5662 5663 5663 5662 5662 5662 5662 5662 5662 5662 5662 5662 5662 5661 5661 5661 5661 5661 5661 5661 5661 5660 5660 5660 5659 5659 5659 5658 5658 5658 5657 5657 5656
5652 5653 5654 5654 5655 5656 5656 5657 5658 5658 5659 5659 5659 5659 5659 5659 5659 5659 5659 5659 5660 5660 5659 5659 5660 5659 5659 5659 5659 5659 5659 5659 5659 5659 5659 5659 5659 5659 5659 5659 5659 5658 5658 5659 5659 5659 5658 5658 5658 5658 5658 5657 5657 5657 5657 5657 5657 5657 5656 5656 5656 5655 5655 5654 5654 5654 5654 5653 5653
5649 5649 5650 5650 5651 5652 5653 5654 5654 5654 5655 5655 5655 5655 5655 5655 5655 5655 5655 5656 5656 5656 5656 5656 5656 5656 5656 5656 5656 5656 5656 5655 5655 5655 5655 5655 5655 5655 5655 5655 5655 5655 5655 5655 5655 5655 5655 5655 5655 5654 5654 5654 5654 5654 5654 5654 5654 5653 5653 5653 5652 5652 5652 5651 5651 5650 5650 5650 5649
5645 5645 5646 5647 5647 5648 5649 5649 5650 5650 5651 5651 5651 5651 5651 5651 5651 5652 5652 5652 5652 5652 5652 5652 5652 5652 5652 5652 5652 5652 5652 5652 5652 5652 5652 5652 5652 5652 5652 5652 5652 5652 5652 5652 5652 5652 5651 5651 5651 5651 5650 5650 5650 5650 5650 5650 5650 5650 5649 5649 5649 5649 5649 5648 5647 5647 5647 5646 5646